Regional Weather Roundup
Issued by NWS Charleston, WV

Home | Current Version | Previous Version | Graphics & Text | Print | Product List | Glossary On
Versions: 1 2 3 4 5 6 7 8 9 10 11 12 13 14 15 16 17 18 19 20 21 22 23 24 25 26 27 28 29 30 31 32 33 34 35 36 37 38 39 40 41 42 43 44 45 46 47 48 49 50
000
ASUS41 KRLX 311010
RWRRLX
West Virginia Regional Weather Roundup
National Weather Service Charleston WV
600 AM EDT THU JUL 31 2014

Note: "fair" indicates few or no clouds below 12,000 feet with no
significant weather and/or obstructions to visibility.

WVZ003-311100-
Northern Panhandle of West Virginia

CITY           SKY/WX    TMP DP  RH WIND       PRES   REMARKS
WHEELING       MOCLDY    58  57  97 S6        30.07S
$$

WVZ009-311100-
Northwest West Virginia

CITY           SKY/WX    TMP DP  RH WIND       PRES   REMARKS
PARKERSBURG    PTCLDY    57  56  96 CALM      30.11R
$$

WVZ006-311100-
Western West Virginia

CITY           SKY/WX    TMP DP  RH WIND       PRES   REMARKS
HUNTINGTON     CLEAR     57  57 100 S5        30.09R
$$

WVZ015-311100-
West Central West Virginia

CITY           SKY/WX    TMP DP  RH WIND       PRES   REMARKS
CHARLESTON     MOCLDY    59  59 100 CALM      30.09S
$$

WVZ031-311100-
North Central West Virginia

CITY           SKY/WX    TMP DP  RH WIND       PRES   REMARKS
CLARKSBURG     CLEAR     57  54  89 CALM      30.10R
MORGANTOWN     CLEAR     59  55  87 CALM      30.11R
$$

WVZ035-042-045-311100-
South Central West Virginia

CITY           SKY/WX    TMP DP  RH WIND       PRES   REMARKS
BECKLEY        CLEAR     56  52  86 CALM      30.17R
BLUEFIELD      PTCLDY    59  52  77 SW3       30.18S
LEWISBURG      FOG       51  49  92 CALM      30.17S VSB 1/2
$$

WVZ047-311100-
Northern Mountains of West Virginia

CITY           SKY/WX    TMP DP  RH WIND       PRES   REMARKS
ELKINS         CLEAR     51  49  92 CALM      30.15S FOG
$$

WVZ052-311100-
Eastern Panhandle of West Virginia

CITY           SKY/WX    TMP DP  RH WIND       PRES   REMARKS
MARTINSBURG    CLEAR     58  55  90 CALM      30.09R FOG
PETERSBURG     FOG       53  50  90 CALM      30.12R VSB 1/4
$$



USA.gov is the U.S. government's official web portal to all federal, state and local government web resources and services.